カタログに戻る

COSMOS 249 DEB

運用中LEO
NORAD 19362·DEBRIS·🇷🇺 Russia

打ち上げ Oct 20, 1968 から Baikonur Cosmodrome

Loading…

次のパス (今後24時間)

TLE

最新Source: Space-Track

元期: Sep 14, 2026, 20:09 UTC

1 19362U 68091DJ  26257.83970079  .00008472  00000-0  10511-2 0  9991
2 19362  62.7631  58.6208 0466243  69.5797 295.4688 14.28076175932765

AllMySatでCOSMOS 249 DEBをリアルタイム追跡

Download on the App Store